STARLINK-32184, 60942

Orbit data source: Space-Track

STARLINK-32184, 60942 is a payload satellite owned by SpaceX/Seattle (US) in LEO that was launched on Sat, 31 Aug 2024 UTC via an FALCON 9 launch vehicle from the Air Force Western Test Range (AFWTR). Payloads include a variety of satellites, spacecraft, and rockets equipped with specific instruments for various scientific and technological missions. These include communications satellites like Starlink; space stations such as the ISS; scientific satellites like the Hubble; Earth observation satellites from companies like Planet Labs, Umbra, and HawkEye 360; GPS; miniature CubeSats for education and research; and military/defense satellites.

Loading next visibility...
STARLINK-32184 details
Identifier
60942, 2024-155U
Orbit
LEO
Last TLE update14 hours ago
Origin
Flag of USSpaceX/Seattle (US)
ManufacturerSpaceX/Seattle
MissionOperational spacecraft
Bus & MotorSTARLINK V2M, Unknown motor
Mass730 kg wet, ~700 kg dry
Launch date (UTC)
2024-08-31 (5 months ago)
Launch vehicle
FALCON 9
Launch site
Air Force Western Test Range (AFWTR)
Object type
Payload
Rocket body
Debris
Shape & HBRUnknown
Radar Cross SectionLarge (>1 m²)

Expand to show TLE details & history

TLE from 14 hours ago
0 STARLINK-32184
1 60942U 24155U   25014.92159796  .00000328  00000-0  23198-4 0  9998
2 60942  53.1579 274.9479 0001147  77.7958 282.3171 15.30191192 22179
Epoch: 2025-01-14T22:07Z
Definitive object data (Epoch: 2025-01-14T22:07:06.063Z)
Latitude-0.00005°
Longitude-171.44875°
Altitude475.973 km
Speed7.629 km/s
True Right ascension18h 19m 47s
True Declination0° 00' 00"
Sunlit
Object was in daylight at TLE epoch
Visualization TLE readout
Latitude-16.91835°
Longitude172.73851°
Altitude479.978 km
Speed7.626 km/s
Apparent Right ascension20h 12m 59s
Apparent Declination-43° 03' 20"
Sunlit
Object is in daylight
Visualization observer readout
Local Sidereal Time12:48:21
Azimuth117.477° SE
Elevation-39.819°
Doppler factor1
Orbital elements
Apogee altitude476.284 km
Perigee altitude474.712 km
Semi-major axis6,853.635 km
Eccentricity0.0001147
Inclination53.1579°
RAAN274.9479°
Arg. of periapsis77.7958°
True anomaly282.30426°
Mean anomaly282.3171°
Eccentric anomaly282.31068°
Mean motion3.82527 °/min
BSTAR0.000023198
Orbital period94.11 mins
Loading maneuver chart data...
Loading historical data...
Loading historical data...
Loading historical data...
Loading historical data...
Loading historical data...
Loading historical data...
Loading historical data...

STARLINK-32184 Visibility forecast

Observer location: undefined°, undefined

Span
Click to sort rows by Start time (UTC) header in descending order
Start Az.
Max El. time (UTC)
Max El. Az.
Max El.
End time (UTC)
End Az.
4 mins2025-01-15 18:39:02.407Z163.707° S2025-01-15 18:41:02.407Z127.819° SE16.005°2025-01-15 18:43:02.407Z91.846° ESE
6 mins2025-01-15 20:16:02.407Z248.277° W2025-01-15 20:19:02.407Z353.733° N38.213°2025-01-15 20:22:02.407Z42.349° NE
4 mins2025-01-16 01:14:02.407Z353.399° N2025-01-16 01:15:02.407Z14.771° NNE19.609°2025-01-16 01:18:02.407Z73.555° E
6 mins2025-01-16 02:51:02.407Z302.552° NW2025-01-16 02:54:02.407Z182.907° SSW41.113°2025-01-16 02:57:02.407Z140.854° SSE
|